Regional Weather Roundup
Issued by NWS

Home | Current Version | Previous Version | Text Only | Print | Product List | Glossary Off
Versions: 1 2 3 4 5 6 7 8 9 10 11 12 13 14 15 16 17 18 19 20 21 22 23 24 25 26 27 28 29 30 31 32 33 34 35 36 37 38 39 40 41 42 43 44 45 46 47 48 49 50

000
ASUS43 KMKX 021411
RWRWI

WISCONSIN REGIONAL WEATHER ROUNDUP
NATIONAL WEATHER SERVICE MILWAUKEE/SULLIVAN WI
900 AM CDT SUN AUG 02 2015

NOTE: "FAIR" INDICATES FEW OR NO CLOUDS BELOW 12,000 FEET WITH NO
SIGNIFICANT WEATHER AND/OR OBSTRUCTIONS TO VISIBILITY.

WIZ001-002-006>008-014>016-023>028-021500-
NORTHWEST WISCONSIN

CITY           SKY/WX    TMP DP  RH WIND       PRES   REMARKS
SUPERIOR ARPT  PTSUNNY   71  60  68 S5        29.62S
ASHLAND        PTSUNNY   70  66  87 CALM      29.64S
HAYWARD        TSTM      66  64  93 SW9       29.70R FOG
SIREN          MOSUNNY   69  63  79 CALM      29.64F
CUMBERLAND     MOSUNNY   70  64  83 SW5       29.66F
RICE LAKE      MOSUNNY   72  65  79 W6        29.67F
CHETEK         MOSUNNY   72  66  82 S8        29.66F
LADYSMITH      PTSUNNY   72  67  82 SW7       29.68F
EAU CLAIRE       N/A     75  65  70 MISG      29.66F
MENOMONIE      MOSUNNY   76  66  70 SW10      29.66F
NEW RICHMOND   MOSUNNY   74  64  70 SW9       29.65F
OSCEOLA        SUNNY     74  66  75 S7        29.66F
$$

WIZ003>005-009-010-017-018-021500-
NORTH CENTRAL WISCONSIN

CITY           SKY/WX    TMP DP  RH WIND       PRES   REMARKS
MANITOWISH WTR CLOUDY    68  61  79 SE3       29.67S
ARBOR VITAE    CLOUDY    66  62  89 CALM      29.67S
WOODRUFF       CLOUDY    66  62  89 CALM      29.67S
RHINELANDER    CLOUDY    63  60  90 W6        29.68R
EAGLE RIVER    CLOUDY    65  65  97 CALM      29.66F
LAND O LAKES   CLOUDY    66  61  84 SE3       29.67F
PHILLIPS       CLOUDY    63  62  95 CALM      29.68F
TOMAHAWK       CLOUDY    64  61  90 NW6       29.70R
MEDFORD        CLOUDY    69  65  88 SW10      29.68F
MERRILL        NOT AVBL
$$

WIZ029-030-035-036-043>047-021500-
CENTRAL WISCONSIN

CITY           SKY/WX    TMP DP  RH WIND       PRES   REMARKS
WAUSAU         LGT RAIN  70  67  90 SW12      29.67F
MOSINEE        PTSUNNY   70  70 100 S8        29.71F
MARSHFIELD     PTSUNNY   73  66  78 W9        29.71F
STEVENS POINT  CLOUDY    71  66  85 SW8       29.71F
WAUPACA        PTSUNNY   79  68  68 W9        29.72R HX  81
WAUTOMA        CLOUDY    80  69  69 W9        29.73R HX  83
WISC RAPIDS    CLOUDY    76  66  71 W7        29.73S
CAMP DOUGLAS   MOSUNNY   79  75  89 W13       29.72R HX  82
$$

WIZ011>013-019>022-031-037>040-048>050-021500-
NORTHEAST WISCONSIN

CITY           SKY/WX    TMP DP  RH WIND       PRES   REMARKS
ANTIGO         CLOUDY    67  64  90 SW10      29.69F
SHAWANO        PTSUNNY   73  68  83 CALM      29.71R
OCONTO         MOSUNNY   75  72  90 W10       29.68R
STURGEON BAY   MOSUNNY   77  66  69 W16G23    29.71R
GREEN BAY      MOSUNNY   77  69  76 SW12G21   29.70S
MANITOWOC      MOSUNNY   76  69  79 MISG      29.71R
APPLETON       PTSUNNY   75  66  73 SW13G22   29.72R
CLINTONVILLE   PTSUNNY   72  66  83 W8        29.72R
OSHKOSH        PTSUNNY   77  68  73 SW7G17    29.71S
$$

WIZ032>034-041-042-053>061-021500-
SOUTHWEST WISCONSIN

CITY           SKY/WX    TMP DP  RH WIND       PRES   REMARKS
LA CROSSE      SUNNY     80  68  66 VRB5G17   29.72R HX  83
SPARTA         SUNNY     77  66  69 W8        29.73R
VIROQUA        SUNNY     77  68  72 W14       29.77R
BOSCOBEL       PTSUNNY   80  67  64 SW12      29.75F HX  82
PRAIRIE DU CHI MOSUNNY   78  64  61 SW6       29.76S
PLATTEVILLE    PTSUNNY   76  69  77 SW12      29.81F
$$

WIZ056-057-062-063-064-067-068-021500-
SOUTH CENTRAL WISCONSIN

CITY           SKY/WX    TMP DP  RH WIND       PRES   REMARKS
REEDSBURG      CLOUDY    77  69  75 SW17G23   29.73S
BARABOO/DELLS  CLOUDY    77  67  70 SW18G25   29.73S
LONE ROCK      CLOUDY    78  67  68 SW9       29.76F HX  80
MINERAL POINT  PTSUNNY   77  66  69 SW13      29.80F
MADISON        PTSUNNY   78  67  68 SW8G17    29.77F HX  80
MIDDLETON      PTSUNNY   78  65  65 SW13G22   29.77F HX  80
WATERTOWN      PTSUNNY   77  74  92 SW12G17   29.76F
MONROE         MOSUNNY   75  68  78 SW17      29.82S
JANESVILLE     PTSUNNY   79  68  69 SW12      29.81R HX  81
$$

WIZ051-052-058>065-066-070>072-021500-
SOUTHEAST WISCONSIN

CITY           SKY/WX    TMP DP  RH WIND       PRES   REMARKS
MILWAUKEE      MOSUNNY   80  68  66 SW20G28   29.77F HX  83
WAUKESHA       MOSUNNY   77  66  69 SW12G23   29.79F
MILWAUKEE/TIMM SUNNY     81  66  61 W17G24    29.78S HX  83
RACINE         SUNNY     80  68  66 W14G22    29.81R HX  83
BURLINGTON     SUNNY     77  67  71 SW13G18   29.80S
KENOSHA        SUNNY     81  70  69 SW17      29.81S HX  84
FOND DU LAC    LGT RAIN  75  70  84 SW9G17    29.72S
SHEBOYGAN      LGT RAIN  78  69  73 W15       29.72F HX  80
WEST BEND      MOSUNNY   79  66  65 SW16G23   29.75S HX  81
JUNEAU         PTSUNNY   75  70  85 SW12      29.76F
$$

LSZ147-162-021500-
LAKE SUPERIOR

STATION/POSITION TIME  TEMP    WIND        PRES    WAVE
                       AIR SEA DIR/SP/G            HT/PER
                 (UTC) (F)     (DEG/KT/KT) (MB)    (FT/S)
W MID LAKE BUOY  1350   58 54  240/  6/  8 1002.7S   1/ 3
DEVILS ISLAND    1400   68     130/  2/  4 1002.3F
PORT WING        1340   70     190/  3/  5 1003.0F
SAXON HARBOR     1300   68                 1003.4R
$$

LMZ867-665-643>646-021500-
LAKE MICHIGAN

STATION/POSITION TIME  TEMP    WIND        PRES    WAVE
                       AIR SEA DIR/SP/G            HT/PER
                 (UTC) (F)     (DEG/KT/KT) (MB)    (FT/S)
CHAMBERS ISLAND  1300   69     210/  5/ 12 1004.7R
S GREEN BAY BUOY 1300   67 64  230/ 12/ 14 1006.8R
N MID LAKE BUOY  1350   69 68  250/ 12/ 17 1004.4R   2/ 4
NORTHPORT PIER   1400   73     310/  9/ 18 1005.1R
ALGOMA LAKESHORE 1212          240/ 13/ 19   N/A
KEWAUNEE LAKESHO 1300   72     230/  8/ 13 1004.8R
SHEBOYGAN LAKESH 1400   78     240/ 20/ 26 1006.2F
PORT WASHINGTON  1340   81     250/ 15/ 22 1007.1F
ATWATER BUOY     1400   75 58  230/ 12/ 16 1008.9F
MILWAUKEE LAKESH 1300   74     250/ 10/ 13   N/A
KENOSHA   LAKESH 1400   80     240/ 11/ 21 1009.1S
$$

TC  - TEMPERATURE IN CELSIUS
VSB - VISIBILITY IN STATUTE MILES
WCI - WIND CHILL INDEX
HX  - HEAT INDEX



USA.gov is the U.S. government's official web portal to all federal, state and local government web resources and services.